Location: ?
(35.3436°N, 139.3168°E)
Time: 08:13:25
(UTC+00:00)

Cosmos 2369 - Pass Details

Date: 29 October 2020
Orbit: 841 x 854 km, 71.0° (Epoch: 02 December)

Event Time Altitude Azimuth Distance (km) Brightness Sun altitude
Exits shadow 18:56:39 20° 348° (NNW) 1,879 5.4 -26.1°
Maximum altitude 19:00:40 67° 67° (ENE) 913 4.0 -25.3°
Drops below altitude 10° 19:06:15 10° 150° (SSE) 2,448 6.5 -24.2°
Sets 19:08:42 0° 153° (SSE) 3,379 7.2 -23.7°
